Time,TemperatureF,DewpointF,PressureIn,WindDirection,WindDirectionDegrees,WindSpeedMPH,WindSpeedGustMPH,Humidity,HourlyPrecipIn,Conditions,Clouds,dailyrainin,SoftwareType,DateUTC
2013-05-18 00:06:00,64.8,64.0,30.03,NE,51,0.0,1.0,97,0.01,,,0.00,weatherlink.com 1.10,2013-05-18 04:06:00,
2013-05-18 00:22:00,64.7,64.0,30.03,NE,51,0.0,0.0,97,0.01,,,0.00,weatherlink.com 1.10,2013-05-18 04:22:00,
2013-05-18 00:37:00,64.5,64.0,30.03,NE,51,0.0,0.0,97,0.01,,,0.00,weatherlink.com 1.10,2013-05-18 04:37:00,
2013-05-18 00:52:00,64.5,64.0,30.03,NE,51,0.0,1.0,97,0.01,,,0.00,weatherlink.com 1.10,2013-05-18 04:52:00,
2013-05-18 01:07:00,64.4,64.0,30.03,NE,51,0.0,0.0,97,0.00,,,0.00,weatherlink.com 1.10,2013-05-18 05:07:00,
2013-05-18 01:22:00,64.3,64.0,30.02,NE,51,0.0,0.0,97,0.00,,,0.00,weatherlink.com 1.10,2013-05-18 05:22:00,
2013-05-18 01:37:00,64.3,64.0,30.01,NE,51,0.0,1.0,97,0.00,,,0.00,weatherlink.com 1.10,2013-05-18 05:37:00,
2013-05-18 01:52:00,64.3,64.0,30.00,NE,51,0.0,1.0,97,0.00,,,0.00,weatherlink.com 1.10,2013-05-18 05:52:00,
2013-05-18 02:07:00,64.3,64.0,30.00,NE,52,0.0,1.0,97,0.00,,,0.00,weatherlink.com 1.10,2013-05-18 06:07:00,
2013-05-18 02:22:00,64.2,63.0,29.99,NE,53,0.0,1.0,97,0.00,,,0.00,weatherlink.com 1.10,2013-05-18 06:22:00,
2013-05-18 02:37:00,64.1,63.0,29.99,NE,52,0.0,0.0,97,0.00,,,0.00,weatherlink.com 1.10,2013-05-18 06:37:00,
2013-05-18 02:52:00,64.0,63.0,29.99,ENE,66,0.0,0.0,97,0.00,,,0.00,weatherlink.com 1.10,2013-05-18 06:52:00,
2013-05-18 03:07:00,64.0,63.0,29.98,NE,56,0.0,0.0,97,0.00,,,0.00,weatherlink.com 1.10,2013-05-18 07:07:00,
2013-05-18 03:22:00,64.2,63.0,29.99,SE,133,0.0,0.0,97,0.00,,,0.00,weatherlink.com 1.10,2013-05-18 07:22:00,
2013-05-18 03:37:00,64.2,63.0,29.99,SE,133,0.0,0.0,97,0.00,,,0.00,weatherlink.com 1.10,2013-05-18 07:37:00,
2013-05-18 03:52:00,64.3,63.0,29.98,SE,133,0.0,1.0,96,0.00,,,0.00,weatherlink.com 1.10,2013-05-18 07:52:00,
2013-05-18 04:07:00,64.3,63.0,29.99,SE,132,0.0,0.0,96,0.00,,,0.00,weatherlink.com 1.10,2013-05-18 08:07:00,
2013-05-18 04:22:00,64.2,63.0,30.00,SE,133,0.0,1.0,96,0.00,,,0.00,weatherlink.com 1.10,2013-05-18 08:22:00,
2013-05-18 04:37:00,64.2,63.0,30.00,North,6,0.0,1.0,96,0.00,,,0.00,weatherlink.com 1.10,2013-05-18 08:37:00,
2013-05-18 04:52:00,64.0,63.0,30.00,North,354,0.0,1.0,97,0.00,,,0.00,weatherlink.com 1.10,2013-05-18 08:52:00,
2013-05-18 05:07:00,63.9,63.0,30.00,North,352,0.0,1.0,97,0.00,,,0.00,weatherlink.com 1.10,2013-05-18 09:07:00,
2013-05-18 05:22:00,63.8,63.0,30.00,West,262,0.0,1.0,98,0.00,,,0.00,weatherlink.com 1.10,2013-05-18 09:22:00,
2013-05-18 05:37:00,63.7,63.0,30.00,NNW,342,0.0,1.0,98,0.00,,,0.00,weatherlink.com 1.10,2013-05-18 09:37:00,
2013-05-18 05:52:00,63.7,63.0,30.00,NNW,333,0.0,1.0,98,0.00,,,0.00,weatherlink.com 1.10,2013-05-18 09:52:00,
2013-05-18 06:07:00,63.8,63.0,30.00,North,355,0.0,2.0,98,0.00,,,0.00,weatherlink.com 1.10,2013-05-18 10:07:00,
2013-05-18 06:22:00,63.8,63.0,30.01,North,5,0.0,1.0,98,0.00,,,0.00,weatherlink.com 1.10,2013-05-18 10:22:00,
2013-05-18 06:37:00,63.8,63.0,30.01,North,4,0.0,1.0,98,0.00,,,0.00,weatherlink.com 1.10,2013-05-18 10:37:00,
2013-05-18 06:52:00,63.9,63.0,30.01,NNE,32,0.0,0.0,97,0.00,,,0.00,weatherlink.com 1.10,2013-05-18 10:52:00,
2013-05-18 07:07:00,64.1,63.0,30.01,NNE,32,0.0,0.0,97,0.00,,,0.00,weatherlink.com 1.10,2013-05-18 11:07:00,
2013-05-18 07:22:00,64.5,64.0,30.01,NE,36,0.0,0.0,97,0.00,,,0.00,weatherlink.com 1.10,2013-05-18 11:22:00,
2013-05-18 07:37:00,64.7,64.0,30.02,NE,52,0.0,0.0,97,0.00,,,0.00,weatherlink.com 1.10,2013-05-18 11:37:00,
2013-05-18 07:52:00,64.9,64.0,30.02,NNW,336,0.0,0.0,97,0.00,,,0.00,weatherlink.com 1.10,2013-05-18 11:52:00,
2013-05-18 08:07:00,64.9,64.0,30.02,WNW,293,0.0,1.0,97,0.00,,,0.00,weatherlink.com 1.10,2013-05-18 12:07:00,
2013-05-18 08:22:00,65.1,64.0,30.03,West,271,0.0,1.0,96,0.00,,,0.00,weatherlink.com 1.10,2013-05-18 12:22:00,
2013-05-18 08:37:00,65.4,64.0,30.03,West,269,0.0,0.0,96,0.00,,,0.00,weatherlink.com 1.10,2013-05-18 12:37:00,
2013-05-18 08:52:00,65.2,64.0,30.03,West,269,0.0,0.0,96,0.00,,,0.00,weatherlink.com 1.10,2013-05-18 12:52:00,
2013-05-18 09:07:00,65.2,64.0,30.03,West,269,0.0,0.0,96,0.00,,,0.00,weatherlink.com 1.10,2013-05-18 13:07:00,
2013-05-18 09:22:00,65.6,65.0,30.02,NE,36,0.0,1.0,96,0.00,,,0.00,weatherlink.com 1.10,2013-05-18 13:22:00,
2013-05-18 09:37:00,66.7,65.0,30.02,NE,36,0.0,1.0,95,0.00,,,0.00,weatherlink.com 1.10,2013-05-18 13:37:00,
2013-05-18 09:52:00,68.0,66.0,30.03,ESE,117,1.0,2.0,92,0.00,,,0.00,weatherlink.com 1.10,2013-05-18 13:52:00,
2013-05-18 10:07:00,69.4,67.0,30.03,SE,126,0.0,1.0,91,0.00,,,0.00,weatherlink.com 1.10,2013-05-18 14:07:00,
2013-05-18 10:22:00,70.2,67.0,30.02,SE,130,1.0,1.0,88,0.00,,,0.00,weatherlink.com 1.10,2013-05-18 14:22:00,
2013-05-18 10:37:00,71.8,68.0,30.02,West,281,0.0,1.0,88,0.00,,,0.00,weatherlink.com 1.10,2013-05-18 14:37:00,
2013-05-18 10:52:00,72.8,67.0,30.02,West,277,0.0,1.0,83,0.00,,,0.00,weatherlink.com 1.10,2013-05-18 14:52:00,
2013-05-18 11:07:00,71.9,67.0,30.02,West,277,0.0,1.0,83,0.00,,,0.00,weatherlink.com 1.10,2013-05-18 15:07:00,
2013-05-18 11:23:00,71.8,67.0,30.02,West,277,1.0,1.0,84,0.00,,,0.00,weatherlink.com 1.10,2013-05-18 15:23:00,
2013-05-18 11:38:00,71.3,66.0,30.02,West,277,1.0,1.0,83,0.00,,,0.00,weatherlink.com 1.10,2013-05-18 15:38:00,
2013-05-18 11:53:00,72.0,67.0,30.01,East,98,0.0,2.0,85,0.00,,,0.00,weatherlink.com 1.10,2013-05-18 15:53:00,
2013-05-18 12:08:00,75.4,69.0,30.01,East,84,1.0,2.0,79,0.00,,,0.00,weatherlink.com 1.10,2013-05-18 16:08:00,
2013-05-18 12:23:00,76.5,68.0,30.01,East,91,0.0,3.0,75,0.00,,,0.00,weatherlink.com 1.10,2013-05-18 16:23:00,
2013-05-18 12:38:00,75.5,67.0,30.00,SE,125,0.0,2.0,75,0.00,,,0.00,weatherlink.com 1.10,2013-05-18 16:38:00,
2013-05-18 12:53:00,75.8,68.0,29.99,ESE,105,1.0,1.0,76,0.00,,,0.00,weatherlink.com 1.10,2013-05-18 16:53:00,
2013-05-18 13:08:00,77.7,69.0,29.99,SW,224,2.0,2.0,74,0.00,,,0.00,weatherlink.com 1.10,2013-05-18 17:08:00,
2013-05-18 13:23:00,78.3,69.0,29.98,SW,227,0.0,2.0,72,0.00,,,0.00,weatherlink.com 1.10,2013-05-18 17:23:00,
2013-05-18 13:38:00,78.9,68.0,29.98,ENE,58,0.0,2.0,70,0.00,,,0.00,weatherlink.com 1.10,2013-05-18 17:38:00,
2013-05-18 13:53:00,80.2,69.0,29.98,SSW,203,0.0,1.0,69,0.00,,,0.00,weatherlink.com 1.10,2013-05-18 17:53:00,
2013-05-18 14:08:00,79.8,69.0,29.97,SW,235,2.0,3.0,70,0.00,,,0.00,weatherlink.com 1.10,2013-05-18 18:08:00,
2013-05-18 14:23:00,79.4,67.0,29.96,SW,221,0.0,3.0,66,0.00,,,0.00,weatherlink.com 1.10,2013-05-18 18:23:00,
2013-05-18 14:38:00,78.4,68.0,29.96,WNW,283,0.0,4.0,70,0.00,,,0.00,weatherlink.com 1.10,2013-05-18 18:38:00,
2013-05-18 14:53:00,77.3,67.0,29.96,SSW,212,3.0,4.0,71,0.00,,,0.00,weatherlink.com 1.10,2013-05-18 18:53:00,
2013-05-18 15:08:00,74.6,68.0,29.97,SE,135,0.0,6.0,80,0.02,,,0.02,weatherlink.com 1.10,2013-05-18 19:08:00,
2013-05-18 15:23:00,70.8,67.0,29.97,WSW,257,1.0,2.0,88,0.07,,,0.07,weatherlink.com 1.10,2013-05-18 19:23:00,
2013-05-18 15:38:00,68.6,66.0,29.96,NW,305,1.0,3.0,92,0.28,,,0.28,weatherlink.com 1.10,2013-05-18 19:38:00,
2013-05-18 15:53:00,68.7,67.0,29.96,WNW,292,0.0,2.0,94,0.30,,,0.30,weatherlink.com 1.10,2013-05-18 19:53:00,
2013-05-18 16:08:00,69.0,68.0,29.95,NNE,15,0.0,2.0,96,0.28,,,0.30,weatherlink.com 1.10,2013-05-18 20:08:00,
2013-05-18 16:23:00,69.4,68.0,29.95,NNE,25,0.0,2.0,96,0.22,,,0.30,weatherlink.com 1.10,2013-05-18 20:23:00,
2013-05-18 16:38:00,71.1,70.0,29.95,NW,319,0.0,2.0,95,0.02,,,0.30,weatherlink.com 1.10,2013-05-18 20:38:00,
2013-05-18 16:53:00,73.3,70.0,29.94,NW,304,1.0,2.0,89,0.00,,,0.30,weatherlink.com 1.10,2013-05-18 20:53:00,
2013-05-18 17:08:00,74.2,71.0,29.94,North,352,0.0,1.0,88,0.00,,,0.30,weatherlink.com 1.10,2013-05-18 21:08:00,
2013-05-18 17:23:00,73.7,70.0,29.93,North,6,1.0,2.0,89,0.00,,,0.30,weatherlink.com 1.10,2013-05-18 21:23:00,
2013-05-18 17:38:00,73.2,71.0,29.94,NNW,348,0.0,3.0,91,0.00,,,0.30,weatherlink.com 1.10,2013-05-18 21:38:00,
2013-05-18 17:53:00,73.6,70.0,29.93,West,274,0.0,5.0,88,0.00,,,0.30,weatherlink.com 1.10,2013-05-18 21:53:00,
2013-05-18 18:08:00,75.4,70.0,29.94,NW,309,1.0,3.0,84,0.00,,,0.30,weatherlink.com 1.10,2013-05-18 22:08:00,
2013-05-18 18:23:00,75.1,70.0,29.93,West,264,0.0,3.0,83,0.00,,,0.30,weatherlink.com 1.10,2013-05-18 22:23:00,
2013-05-18 18:38:00,74.5,69.0,29.95,ESE,106,0.0,4.0,84,0.00,,,0.30,weatherlink.com 1.10,2013-05-18 22:38:00,
2013-05-18 18:53:00,72.6,67.0,29.96,ESE,110,0.0,1.0,82,0.00,,,0.30,weatherlink.com 1.10,2013-05-18 22:53:00,
2013-05-18 19:08:00,71.9,67.0,29.95,ESE,105,0.0,1.0,84,0.00,,,0.30,weatherlink.com 1.10,2013-05-18 23:08:00,
2013-05-18 19:24:00,71.6,67.0,29.95,West,262,0.0,2.0,86,0.00,,,0.30,weatherlink.com 1.10,2013-05-18 23:24:00,
2013-05-18 19:38:00,71.0,67.0,29.95,NNE,32,0.0,2.0,88,0.00,,,0.30,weatherlink.com 1.10,2013-05-18 23:38:00,
2013-05-18 19:53:00,70.9,67.0,29.95,NNW,340,0.0,1.0,88,0.00,,,0.30,weatherlink.com 1.10,2013-05-18 23:53:00,
2013-05-18 20:08:00,70.7,67.0,29.95,NNE,17,0.0,1.0,89,0.00,,,0.30,weatherlink.com 1.10,2013-05-19 00:08:00,
2013-05-18 20:23:00,70.5,68.0,29.94,NNE,18,0.0,0.0,90,0.00,,,0.30,weatherlink.com 1.10,2013-05-19 00:23:00,
2013-05-18 20:38:00,70.2,67.0,29.94,NNE,18,0.0,0.0,90,0.00,,,0.30,weatherlink.com 1.10,2013-05-19 00:38:00,
2013-05-18 20:53:00,69.8,67.0,29.95,NNE,18,0.0,0.0,91,0.00,,,0.30,weatherlink.com 1.10,2013-05-19 00:53:00,
2013-05-18 21:08:00,68.9,67.0,29.95,NNE,22,0.0,1.0,93,0.00,,,0.30,weatherlink.com 1.10,2013-05-19 01:08:00,
2013-05-18 21:23:00,68.2,67.0,29.95,NNE,20,0.0,1.0,94,0.00,,,0.30,weatherlink.com 1.10,2013-05-19 01:23:00,
2013-05-18 21:38:00,67.8,66.0,29.95,NNE,20,0.0,0.0,95,0.00,,,0.30,weatherlink.com 1.10,2013-05-19 01:38:00,
2013-05-18 21:53:00,67.6,67.0,29.95,NNE,22,0.0,1.0,96,0.00,,,0.30,weatherlink.com 1.10,2013-05-19 01:53:00,
2013-05-18 22:08:00,67.4,66.0,29.95,NNE,22,0.0,0.0,96,0.00,,,0.30,weatherlink.com 1.10,2013-05-19 02:08:00,
2013-05-18 22:23:00,67.1,66.0,29.96,NNE,21,0.0,1.0,97,0.00,,,0.30,weatherlink.com 1.10,2013-05-19 02:23:00,
2013-05-18 22:38:00,66.5,66.0,29.96,NNE,22,0.0,0.0,97,0.00,,,0.30,weatherlink.com 1.10,2013-05-19 02:38:00,
2013-05-18 22:53:00,66.3,66.0,29.96,NNE,20,0.0,0.0,97,0.00,,,0.30,weatherlink.com 1.10,2013-05-19 02:53:00,
2013-05-18 23:08:00,66.0,65.0,29.96,NNE,20,0.0,1.0,97,0.00,,,0.30,weatherlink.com 1.10,2013-05-19 03:08:00,
2013-05-18 23:23:00,66.0,66.0,29.96,NNE,33,0.0,1.0,98,0.00,,,0.30,weatherlink.com 1.10,2013-05-19 03:23:00,
2013-05-18 23:38:00,65.9,65.0,29.96,NNE,33,0.0,0.0,98,0.00,,,0.30,weatherlink.com 1.10,2013-05-19 03:38:00,
2013-05-18 23:53:00,66.0,66.0,29.96,NNE,33,0.0,0.0,98,0.00,,,0.30,weatherlink.com 1.10,2013-05-19 03:53:00,